Date_Time,Julian_Date,Latitude,Longitude,Instrument_Depth,Water_Salinity
(yyyy-mm-dd hh:mn:ss UTC),(JD),(+ deg. North),(+ deg. East),(m),(ppt)
1984-07-11 17:30:00 UTC,2445893.229167,28.7317,-95.2428,0201,0.3530
1984-07-11 18:00:00 UTC,2445893.250000,28.7317,-95.2428,0201,0.3530
1984-07-11 18:30:00 UTC,2445893.270833,28.7317,-95.2428,0201,0.3530
1984-07-11 19:00:00 UTC,2445893.291667,28.7317,-95.2428,0201,0.3530
1984-07-11 19:30:00 UTC,2445893.312500,28.7317,-95.2428,0201,0.3530
1984-07-11 20:00:00 UTC,2445893.333333,28.7317,-95.2428,0201,0.3530
1984-07-11 20:30:00 UTC,2445893.354167,28.7317,-95.2428,0201,0.3530
1984-07-11 21:00:00 UTC,2445893.375000,28.7317,-95.2428,0201,0.3530
1984-07-11 21:30:00 UTC,2445893.395833,28.7317,-95.2428,0201,0.3530
1984-07-11 22:00:00 UTC,2445893.416667,28.7317,-95.2428,0201,0.3530
1984-07-11 22:30:00 UTC,2445893.437500,28.7317,-95.2428,0201,0.3530
1984-07-11 23:00:00 UTC,2445893.458333,28.7317,-95.2428,0201,0.3530
1984-07-11 23:30:00 UTC,2445893.479167,28.7317,-95.2428,0201,0.3530
1984-07-12 00:00:00 UTC,2445893.500000,28.7317,-95.2428,0201,0.3530
1984-07-12 00:30:00 UTC,2445893.520833,28.7317,-95.2428,0201,0.3530
1984-07-12 01:00:00 UTC,2445893.541667,28.7317,-95.2428,0201,0.3530
1984-07-12 01:30:00 UTC,2445893.562500,28.7317,-95.2428,0201,0.3530
1984-07-12 02:00:00 UTC,2445893.583333,28.7317,-95.2428,0201,0.3540
1984-07-12 02:30:00 UTC,2445893.604167,28.7317,-95.2428,0201,0.3530
1984-07-12 03:00:00 UTC,2445893.625000,28.7317,-95.2428,0201,0.3530
1984-07-12 03:30:00 UTC,2445893.645833,28.7317,-95.2428,0201,0.3530
1984-07-12 04:00:00 UTC,2445893.666667,28.7317,-95.2428,0201,0.3530
1984-07-12 04:30:00 UTC,2445893.687500,28.7317,-95.2428,0201,0.3530
1984-07-12 05:00:00 UTC,2445893.708333,28.7317,-95.2428,0201,0.3530
1984-07-12 05:30:00 UTC,2445893.729167,28.7317,-95.2428,0201,0.3530
1984-07-12 06:00:00 UTC,2445893.750000,28.7317,-95.2428,0201,0.3530
1984-07-12 06:30:00 UTC,2445893.770833,28.7317,-95.2428,0201,0.3530
1984-07-12 07:00:00 UTC,2445893.791667,28.7317,-95.2428,0201,0.3530
1984-07-12 07:30:00 UTC,2445893.812500,28.7317,-95.2428,0201,0.3530
1984-07-12 08:00:00 UTC,2445893.833333,28.7317,-95.2428,0201,0.3520
1984-07-12 08:30:00 UTC,2445893.854167,28.7317,-95.2428,0201,0.3520
1984-07-12 09:00:00 UTC,2445893.875000,28.7317,-95.2428,0201,0.3530
1984-07-12 09:30:00 UTC,2445893.895833,28.7317,-95.2428,0201,0.3530
1984-07-12 10:00:00 UTC,2445893.916667,28.7317,-95.2428,0201,0.3530
1984-07-12 10:30:00 UTC,2445893.937500,28.7317,-95.2428,0201,0.3530
1984-07-12 11:00:00 UTC,2445893.958333,28.7317,-95.2428,0201,0.3530
1984-07-12 11:30:00 UTC,2445893.979167,28.7317,-95.2428,0201,0.3530
1984-07-12 12:00:00 UTC,2445894.000000,28.7317,-95.2428,0201,0.3530
1984-07-12 12:30:00 UTC,2445894.020833,28.7317,-95.2428,0201,0.3530
1984-07-12 13:00:00 UTC,2445894.041667,28.7317,-95.2428,0201,0.3530
1984-07-12 13:30:00 UTC,2445894.062500,28.7317,-95.2428,0201,0.3520
1984-07-12 14:00:00 UTC,2445894.083333,28.7317,-95.2428,0201,0.3500
1984-07-12 14:30:00 UTC,2445894.104167,28.7317,-95.2428,0201,0.3490
1984-07-12 15:00:00 UTC,2445894.125000,28.7317,-95.2428,0201,0.3490
1984-07-12 15:30:00 UTC,2445894.145833,28.7317,-95.2428,0201,0.3490
1984-07-12 16:00:00 UTC,2445894.166667,28.7317,-95.2428,0201,0.3490
1984-07-12 16:30:00 UTC,2445894.187500,28.7317,-95.2428,0201,0.3490
1984-07-12 17:00:00 UTC,2445894.208333,28.7317,-95.2428,0201,0.3490
1984-07-12 17:30:00 UTC,2445894.229167,28.7317,-95.2428,0201,0.3490
1984-07-12 18:00:00 UTC,2445894.250000,28.7317,-95.2428,0201,0.3490
1984-07-12 18:30:00 UTC,2445894.270833,28.7317,-95.2428,0201,0.3490
1984-07-12 19:00:00 UTC,2445894.291667,28.7317,-95.2428,0201,0.3490
1984-07-12 19:30:00 UTC,2445894.312500,28.7317,-95.2428,0201,0.3490
1984-07-12 20:00:00 UTC,2445894.333333,28.7317,-95.2428,0201,0.3490
1984-07-12 20:30:00 UTC,2445894.354167,28.7317,-95.2428,0201,0.3490
1984-07-12 21:00:00 UTC,2445894.375000,28.7317,-95.2428,0201,0.3490
1984-07-12 21:30:00 UTC,2445894.395833,28.7317,-95.2428,0201,0.3490
1984-07-12 22:00:00 UTC,2445894.416667,28.7317,-95.2428,0201,0.3500
1984-07-12 22:30:00 UTC,2445894.437500,28.7317,-95.2428,0201,0.3500
1984-07-12 23:00:00 UTC,2445894.458333,28.7317,-95.2428,0201,0.3500
1984-07-12 23:30:00 UTC,2445894.479167,28.7317,-95.2428,0201,0.3510
1984-07-13 00:00:00 UTC,2445894.500000,28.7317,-95.2428,0201,0.3500
1984-07-13 00:30:00 UTC,2445894.520833,28.7317,-95.2428,0201,0.3500
1984-07-13 01:00:00 UTC,2445894.541667,28.7317,-95.2428,0201,0.3490
1984-07-13 01:30:00 UTC,2445894.562500,28.7317,-95.2428,0201,0.3490
1984-07-13 02:00:00 UTC,2445894.583333,28.7317,-95.2428,0201,0.3490
1984-07-13 02:30:00 UTC,2445894.604167,28.7317,-95.2428,0201,0.3500
1984-07-13 03:00:00 UTC,2445894.625000,28.7317,-95.2428,0201,0.3500
1984-07-13 03:30:00 UTC,2445894.645833,28.7317,-95.2428,0201,0.3490
1984-07-13 04:00:00 UTC,2445894.666667,28.7317,-95.2428,0201,0.3500
1984-07-13 04:30:00 UTC,2445894.687500,28.7317,-95.2428,0201,0.3500
1984-07-13 05:00:00 UTC,2445894.708333,28.7317,-95.2428,0201,0.3490
1984-07-13 05:30:00 UTC,2445894.729167,28.7317,-95.2428,0201,0.3480
1984-07-13 06:00:00 UTC,2445894.750000,28.7317,-95.2428,0201,0.3480
1984-07-13 06:30:00 UTC,2445894.770833,28.7317,-95.2428,0201,0.3480
1984-07-13 07:00:00 UTC,2445894.791667,28.7317,-95.2428,0201,0.3490
1984-07-13 07:30:00 UTC,2445894.812500,28.7317,-95.2428,0201,0.3500
1984-07-13 08:00:00 UTC,2445894.833333,28.7317,-95.2428,0201,0.3510
1984-07-13 08:30:00 UTC,2445894.854167,28.7317,-95.2428,0201,0.3510
1984-07-13 09:00:00 UTC,2445894.875000,28.7317,-95.2428,0201,0.3520
1984-07-13 09:30:00 UTC,2445894.895833,28.7317,-95.2428,0201,0.3520
1984-07-13 10:00:00 UTC,2445894.916667,28.7317,-95.2428,0201,0.3500
1984-07-13 10:30:00 UTC,2445894.937500,28.7317,-95.2428,0201,0.3500
1984-07-13 11:00:00 UTC,2445894.958333,28.7317,-95.2428,0201,0.3500
1984-07-13 11:30:00 UTC,2445894.979167,28.7317,-95.2428,0201,0.3510
1984-07-13 12:00:00 UTC,2445895.000000,28.7317,-95.2428,0201,0.3520
1984-07-13 12:30:00 UTC,2445895.020833,28.7317,-95.2428,0201,0.3520
1984-07-13 13:00:00 UTC,2445895.041667,28.7317,-95.2428,0201,0.3520
1984-07-13 13:30:00 UTC,2445895.062500,28.7317,-95.2428,0201,0.3520
1984-07-13 14:00:00 UTC,2445895.083333,28.7317,-95.2428,0201,0.3520
1984-07-13 14:30:00 UTC,2445895.104167,28.7317,-95.2428,0201,0.3520
1984-07-13 15:00:00 UTC,2445895.125000,28.7317,-95.2428,0201,0.3520
1984-07-13 15:30:00 UTC,2445895.145833,28.7317,-95.2428,0201,0.3510
1984-07-13 16:00:00 UTC,2445895.166667,28.7317,-95.2428,0201,0.3510
1984-07-13 16:30:00 UTC,2445895.187500,28.7317,-95.2428,0201,0.3520
1984-07-13 17:00:00 UTC,2445895.208333,28.7317,-95.2428,0201,0.3520
1984-07-13 17:30:00 UTC,2445895.229167,28.7317,-95.2428,0201,0.3520
1984-07-13 18:00:00 UTC,2445895.250000,28.7317,-95.2428,0201,0.3520
1984-07-13 18:30:00 UTC,2445895.270833,28.7317,-95.2428,0201,0.3520
1984-07-13 19:00:00 UTC,2445895.291667,28.7317,-95.2428,0201,0.3520
1984-07-13 19:30:00 UTC,2445895.312500,28.7317,-95.2428,0201,0.3530
1984-07-13 20:00:00 UTC,2445895.333333,28.7317,-95.2428,0201,0.3540
1984-07-13 20:30:00 UTC,2445895.354167,28.7317,-95.2428,0201,0.3550
1984-07-13 21:00:00 UTC,2445895.375000,28.7317,-95.2428,0201,0.3550
1984-07-13 21:30:00 UTC,2445895.395833,28.7317,-95.2428,0201,0.3550
1984-07-13 22:00:00 UTC,2445895.416667,28.7317,-95.2428,0201,0.3540
1984-07-13 22:30:00 UTC,2445895.437500,28.7317,-95.2428,0201,0.3530
1984-07-13 23:00:00 UTC,2445895.458333,28.7317,-95.2428,0201,0.3530
1984-07-13 23:30:00 UTC,2445895.479167,28.7317,-95.2428,0201,0.3520
1984-07-14 00:00:00 UTC,2445895.500000,28.7317,-95.2428,0201,0.3520
1984-07-14 00:30:00 UTC,2445895.520833,28.7317,-95.2428,0201,0.3530
1984-07-14 01:00:00 UTC,2445895.541667,28.7317,-95.2428,0201,0.3560
1984-07-14 01:30:00 UTC,2445895.562500,28.7317,-95.2428,0201,0.3590
1984-07-14 02:00:00 UTC,2445895.583333,28.7317,-95.2428,0201,0.3570
1984-07-14 02:30:00 UTC,2445895.604167,28.7317,-95.2428,0201,0.3550
1984-07-14 03:00:00 UTC,2445895.625000,28.7317,-95.2428,0201,0.3550
1984-07-14 03:30:00 UTC,2445895.645833,28.7317,-95.2428,0201,0.3550
1984-07-14 04:00:00 UTC,2445895.666667,28.7317,-95.2428,0201,0.3550
1984-07-14 04:30:00 UTC,2445895.687500,28.7317,-95.2428,0201,0.3550
1984-07-14 05:00:00 UTC,2445895.708333,28.7317,-95.2428,0201,0.3550
1984-07-14 05:30:00 UTC,2445895.729167,28.7317,-95.2428,0201,0.3550
1984-07-14 06:00:00 UTC,2445895.750000,28.7317,-95.2428,0201,0.3560
1984-07-14 06:30:00 UTC,2445895.770833,28.7317,-95.2428,0201,0.3580
1984-07-14 07:00:00 UTC,2445895.791667,28.7317,-95.2428,0201,0.3570
1984-07-14 07:30:00 UTC,2445895.812500,28.7317,-95.2428,0201,0.3560
1984-07-14 08:00:00 UTC,2445895.833333,28.7317,-95.2428,0201,0.3540
1984-07-14 08:30:00 UTC,2445895.854167,28.7317,-95.2428,0201,0.3530
1984-07-14 09:00:00 UTC,2445895.875000,28.7317,-95.2428,0201,0.3530
1984-07-14 09:30:00 UTC,2445895.895833,28.7317,-95.2428,0201,0.3530
1984-07-14 10:00:00 UTC,2445895.916667,28.7317,-95.2428,0201,0.3520
1984-07-14 10:30:00 UTC,2445895.937500,28.7317,-95.2428,0201,0.3520
1984-07-14 11:00:00 UTC,2445895.958333,28.7317,-95.2428,0201,0.3520
1984-07-14 11:30:00 UTC,2445895.979167,28.7317,-95.2428,0201,0.3520
1984-07-14 12:00:00 UTC,2445896.000000,28.7317,-95.2428,0201,0.3510
1984-07-14 12:30:00 UTC,2445896.020833,28.7317,-95.2428,0201,0.3510
1984-07-14 13:00:00 UTC,2445896.041667,28.7317,-95.2428,0201,0.3510
1984-07-14 13:30:00 UTC,2445896.062500,28.7317,-95.2428,0201,0.3510
1984-07-14 14:00:00 UTC,2445896.083333,28.7317,-95.2428,0201,0.3510
1984-07-14 14:30:00 UTC,2445896.104167,28.7317,-95.2428,0201,0.3510
1984-07-14 15:00:00 UTC,2445896.125000,28.7317,-95.2428,0201,0.3510
1984-07-14 15:30:00 UTC,2445896.145833,28.7317,-95.2428,0201,0.3530
1984-07-14 16:00:00 UTC,2445896.166667,28.7317,-95.2428,0201,0.3540
1984-07-14 16:30:00 UTC,2445896.187500,28.7317,-95.2428,0201,0.3550
1984-07-14 17:00:00 UTC,2445896.208333,28.7317,-95.2428,0201,0.3540
1984-07-14 17:30:00 UTC,2445896.229167,28.7317,-95.2428,0201,0.3540
1984-07-14 18:00:00 UTC,2445896.250000,28.7317,-95.2428,0201,0.3540
1984-07-14 18:30:00 UTC,2445896.270833,28.7317,-95.2428,0201,0.3540
1984-07-14 19:00:00 UTC,2445896.291667,28.7317,-95.2428,0201,0.3530
1984-07-14 19:30:00 UTC,2445896.312500,28.7317,-95.2428,0201,0.3530
1984-07-14 20:00:00 UTC,2445896.333333,28.7317,-95.2428,0201,0.3530
1984-07-14 20:30:00 UTC,2445896.354167,28.7317,-95.2428,0201,0.3530
1984-07-14 21:00:00 UTC,2445896.375000,28.7317,-95.2428,0201,0.3520
1984-07-14 21:30:00 UTC,2445896.395833,28.7317,-95.2428,0201,0.3520
1984-07-14 22:00:00 UTC,2445896.416667,28.7317,-95.2428,0201,0.3520
1984-07-14 22:30:00 UTC,2445896.437500,28.7317,-95.2428,0201,0.3510
1984-07-14 23:00:00 UTC,2445896.458333,28.7317,-95.2428,0201,0.3510
1984-07-14 23:30:00 UTC,2445896.479167,28.7317,-95.2428,0201,0.3510
1984-07-15 00:00:00 UTC,2445896.500000,28.7317,-95.2428,0201,0.3520
1984-07-15 00:30:00 UTC,2445896.520833,28.7317,-95.2428,0201,0.3540
1984-07-15 01:00:00 UTC,2445896.541667,28.7317,-95.2428,0201,0.3550
1984-07-15 01:30:00 UTC,2445896.562500,28.7317,-95.2428,0201,0.3580
1984-07-15 02:00:00 UTC,2445896.583333,28.7317,-95.2428,0201,0.3600
1984-07-15 02:30:00 UTC,2445896.604167,28.7317,-95.2428,0201,0.3610
1984-07-15 03:00:00 UTC,2445896.625000,28.7317,-95.2428,0201,0.3590
1984-07-15 03:30:00 UTC,2445896.645833,28.7317,-95.2428,0201,0.3590
1984-07-15 04:00:00 UTC,2445896.666667,28.7317,-95.2428,0201,0.3600
1984-07-15 04:30:00 UTC,2445896.687500,28.7317,-95.2428,0201,0.3600
1984-07-15 05:00:00 UTC,2445896.708333,28.7317,-95.2428,0201,0.3620
1984-07-15 05:30:00 UTC,2445896.729167,28.7317,-95.2428,0201,0.3650
1984-07-15 06:00:00 UTC,2445896.750000,28.7317,-95.2428,0201,0.3660
1984-07-15 06:30:00 UTC,2445896.770833,28.7317,-95.2428,0201,0.3630
1984-07-15 07:00:00 UTC,2445896.791667,28.7317,-95.2428,0201,0.3620
1984-07-15 07:30:00 UTC,2445896.812500,28.7317,-95.2428,0201,0.3620
1984-07-15 08:00:00 UTC,2445896.833333,28.7317,-95.2428,0201,0.3600
1984-07-15 08:30:00 UTC,2445896.854167,28.7317,-95.2428,0201,0.3560
1984-07-15 09:00:00 UTC,2445896.875000,28.7317,-95.2428,0201,0.3530
1984-07-15 09:30:00 UTC,2445896.895833,28.7317,-95.2428,0201,0.3520
1984-07-15 10:00:00 UTC,2445896.916667,28.7317,-95.2428,0201,0.3520
1984-07-15 10:30:00 UTC,2445896.937500,28.7317,-95.2428,0201,0.3520
1984-07-15 11:00:00 UTC,2445896.958333,28.7317,-95.2428,0201,0.3510
1984-07-15 11:30:00 UTC,2445896.979167,28.7317,-95.2428,0201,0.3510
1984-07-15 12:00:00 UTC,2445897.000000,28.7317,-95.2428,0201,0.3500
1984-07-15 12:30:00 UTC,2445897.020833,28.7317,-95.2428,0201,0.3510
1984-07-15 13:00:00 UTC,2445897.041667,28.7317,-95.2428,0201,0.3510
1984-07-15 13:30:00 UTC,2445897.062500,28.7317,-95.2428,0201,0.3510
1984-07-15 14:00:00 UTC,2445897.083333,28.7317,-95.2428,0201,0.3520
1984-07-15 14:30:00 UTC,2445897.104167,28.7317,-95.2428,0201,0.3520
1984-07-15 15:00:00 UTC,2445897.125000,28.7317,-95.2428,0201,0.3520
1984-07-15 15:30:00 UTC,2445897.145833,28.7317,-95.2428,0201,0.3510
1984-07-15 16:00:00 UTC,2445897.166667,28.7317,-95.2428,0201,0.3520
1984-07-15 16:30:00 UTC,2445897.187500,28.7317,-95.2428,0201,0.3520
1984-07-15 17:00:00 UTC,2445897.208333,28.7317,-95.2428,0201,0.3520
1984-07-15 17:30:00 UTC,2445897.229167,28.7317,-95.2428,0201,0.3520
1984-07-15 18:00:00 UTC,2445897.250000,28.7317,-95.2428,0201,0.3520
1984-07-15 18:30:00 UTC,2445897.270833,28.7317,-95.2428,0201,0.3520
1984-07-15 19:00:00 UTC,2445897.291667,28.7317,-95.2428,0201,0.3520
1984-07-15 19:30:00 UTC,2445897.312500,28.7317,-95.2428,0201,0.3520
1984-07-15 20:00:00 UTC,2445897.333333,28.7317,-95.2428,0201,0.3510
1984-07-15 20:30:00 UTC,2445897.354167,28.7317,-95.2428,0201,0.3510
1984-07-15 21:00:00 UTC,2445897.375000,28.7317,-95.2428,0201,0.3520
1984-07-15 21:30:00 UTC,2445897.395833,28.7317,-95.2428,0201,0.3530
1984-07-15 22:00:00 UTC,2445897.416667,28.7317,-95.2428,0201,0.3530
1984-07-15 22:30:00 UTC,2445897.437500,28.7317,-95.2428,0201,0.3520
1984-07-15 23:00:00 UTC,2445897.458333,28.7317,-95.2428,0201,0.3520
1984-07-15 23:30:00 UTC,2445897.479167,28.7317,-95.2428,0201,0.3530
1984-07-16 00:00:00 UTC,2445897.500000,28.7317,-95.2428,0201,0.3530
1984-07-16 00:30:00 UTC,2445897.520833,28.7317,-95.2428,0201,0.3540
1984-07-16 01:00:00 UTC,2445897.541667,28.7317,-95.2428,0201,0.3570
1984-07-16 01:30:00 UTC,2445897.562500,28.7317,-95.2428,0201,0.3580
1984-07-16 02:00:00 UTC,2445897.583333,28.7317,-95.2428,0201,0.3580
1984-07-16 02:30:00 UTC,2445897.604167,28.7317,-95.2428,0201,0.3590
1984-07-16 03:00:00 UTC,2445897.625000,28.7317,-95.2428,0201,0.3590
1984-07-16 03:30:00 UTC,2445897.645833,28.7317,-95.2428,0201,0.3580
1984-07-16 04:00:00 UTC,2445897.666667,28.7317,-95.2428,0201,0.3570
1984-07-16 04:30:00 UTC,2445897.687500,28.7317,-95.2428,0201,0.3590
1984-07-16 05:00:00 UTC,2445897.708333,28.7317,-95.2428,0201,0.3590
1984-07-16 05:30:00 UTC,2445897.729167,28.7317,-95.2428,0201,0.3550
1984-07-16 06:00:00 UTC,2445897.750000,28.7317,-95.2428,0201,0.3530
1984-07-16 06:30:00 UTC,2445897.770833,28.7317,-95.2428,0201,0.3520
1984-07-16 07:00:00 UTC,2445897.791667,28.7317,-95.2428,0201,0.3520
1984-07-16 07:30:00 UTC,2445897.812500,28.7317,-95.2428,0201,0.3530
1984-07-16 08:00:00 UTC,2445897.833333,28.7317,-95.2428,0201,0.3530
1984-07-16 08:30:00 UTC,2445897.854167,28.7317,-95.2428,0201,0.3520
1984-07-16 09:00:00 UTC,2445897.875000,28.7317,-95.2428,0201,0.3530
1984-07-16 09:30:00 UTC,2445897.895833,28.7317,-95.2428,0201,0.3530
1984-07-16 10:00:00 UTC,2445897.916667,28.7317,-95.2428,0201,0.3530
1984-07-16 10:30:00 UTC,2445897.937500,28.7317,-95.2428,0201,0.3530
1984-07-16 11:00:00 UTC,2445897.958333,28.7317,-95.2428,0201,0.3540
1984-07-16 11:30:00 UTC,2445897.979167,28.7317,-95.2428,0201,0.3540
1984-07-16 12:00:00 UTC,2445898.000000,28.7317,-95.2428,0201,0.3520
1984-07-16 12:30:00 UTC,2445898.020833,28.7317,-95.2428,0201,0.3520
1984-07-16 13:00:00 UTC,2445898.041667,28.7317,-95.2428,0201,0.3510
1984-07-16 13:30:00 UTC,2445898.062500,28.7317,-95.2428,0201,0.3510
1984-07-16 14:00:00 UTC,2445898.083333,28.7317,-95.2428,0201,0.3510
1984-07-16 14:30:00 UTC,2445898.104167,28.7317,-95.2428,0201,0.3510
1984-07-16 15:00:00 UTC,2445898.125000,28.7317,-95.2428,0201,0.3510
1984-07-16 15:30:00 UTC,2445898.145833,28.7317,-95.2428,0201,0.3520
1984-07-16 16:00:00 UTC,2445898.166667,28.7317,-95.2428,0201,0.3520
1984-07-16 16:30:00 UTC,2445898.187500,28.7317,-95.2428,0201,0.3520
1984-07-16 17:00:00 UTC,2445898.208333,28.7317,-95.2428,0201,0.3520
1984-07-16 17:30:00 UTC,2445898.229167,28.7317,-95.2428,0201,0.3520
1984-07-16 18:00:00 UTC,2445898.250000,28.7317,-95.2428,0201,0.3510
1984-07-16 18:30:00 UTC,2445898.270833,28.7317,-95.2428,0201,0.3510
1984-07-16 19:00:00 UTC,2445898.291667,28.7317,-95.2428,0201,0.3510
1984-07-16 19:30:00 UTC,2445898.312500,28.7317,-95.2428,0201,0.3520
1984-07-16 20:00:00 UTC,2445898.333333,28.7317,-95.2428,0201,0.3520
1984-07-16 20:30:00 UTC,2445898.354167,28.7317,-95.2428,0201,0.3530
1984-07-16 21:00:00 UTC,2445898.375000,28.7317,-95.2428,0201,0.3520
1984-07-16 21:30:00 UTC,2445898.395833,28.7317,-95.2428,0201,0.3520
1984-07-16 22:00:00 UTC,2445898.416667,28.7317,-95.2428,0201,0.3520
1984-07-16 22:30:00 UTC,2445898.437500,28.7317,-95.2428,0201,0.3520
1984-07-16 23:00:00 UTC,2445898.458333,28.7317,-95.2428,0201,0.3520
1984-07-16 23:30:00 UTC,2445898.479167,28.7317,-95.2428,0201,0.3520
1984-07-17 00:00:00 UTC,2445898.500000,28.7317,-95.2428,0201,0.3520
1984-07-17 00:30:00 UTC,2445898.520833,28.7317,-95.2428,0201,0.3530
1984-07-17 01:00:00 UTC,2445898.541667,28.7317,-95.2428,0201,0.3530
1984-07-17 01:30:00 UTC,2445898.562500,28.7317,-95.2428,0201,0.3530
1984-07-17 02:00:00 UTC,2445898.583333,28.7317,-95.2428,0201,0.3520
1984-07-17 02:30:00 UTC,2445898.604167,28.7317,-95.2428,0201,0.3520
1984-07-17 03:00:00 UTC,2445898.625000,28.7317,-95.2428,0201,0.3510
1984-07-17 03:30:00 UTC,2445898.645833,28.7317,-95.2428,0201,0.3510
1984-07-17 04:00:00 UTC,2445898.666667,28.7317,-95.2428,0201,0.3510
1984-07-17 04:30:00 UTC,2445898.687500,28.7317,-95.2428,0201,0.3510
1984-07-17 05:00:00 UTC,2445898.708333,28.7317,-95.2428,0201,0.3510
1984-07-17 05:30:00 UTC,2445898.729167,28.7317,-95.2428,0201,0.3500
1984-07-17 06:00:00 UTC,2445898.750000,28.7317,-95.2428,0201,0.3500
1984-07-17 06:30:00 UTC,2445898.770833,28.7317,-95.2428,0201,0.3500
1984-07-17 07:00:00 UTC,2445898.791667,28.7317,-95.2428,0201,0.3500
1984-07-17 07:30:00 UTC,2445898.812500,28.7317,-95.2428,0201,0.3500
1984-07-17 08:00:00 UTC,2445898.833333,28.7317,-95.2428,0201,0.3490
1984-07-17 08:30:00 UTC,2445898.854167,28.7317,-95.2428,0201,0.3490
1984-07-17 09:00:00 UTC,2445898.875000,28.7317,-95.2428,0201,0.3490
1984-07-17 09:30:00 UTC,2445898.895833,28.7317,-95.2428,0201,0.3490
1984-07-17 10:00:00 UTC,2445898.916667,28.7317,-95.2428,0201,0.3500
1984-07-17 10:30:00 UTC,2445898.937500,28.7317,-95.2428,0201,0.3490
1984-07-17 11:00:00 UTC,2445898.958333,28.7317,-95.2428,0201,0.3490
1984-07-17 11:30:00 UTC,2445898.979167,28.7317,-95.2428,0201,0.3500
1984-07-17 12:00:00 UTC,2445899.000000,28.7317,-95.2428,0201,0.3500
1984-07-17 12:30:00 UTC,2445899.020833,28.7317,-95.2428,0201,0.3510
1984-07-17 13:00:00 UTC,2445899.041667,28.7317,-95.2428,0201,0.3520
1984-07-17 13:30:00 UTC,2445899.062500,28.7317,-95.2428,0201,0.3540
1984-07-17 14:00:00 UTC,2445899.083333,28.7317,-95.2428,0201,0.3560
1984-07-17 14:30:00 UTC,2445899.104167,28.7317,-95.2428,0201,0.3570
1984-07-17 15:00:00 UTC,2445899.125000,28.7317,-95.2428,0201,0.3570
1984-07-17 15:30:00 UTC,2445899.145833,28.7317,-95.2428,0201,0.3560
1984-07-17 16:00:00 UTC,2445899.166667,28.7317,-95.2428,0201,0.3550
1984-07-17 16:30:00 UTC,2445899.187500,28.7317,-95.2428,0201,0.3550
1984-07-17 17:00:00 UTC,2445899.208333,28.7317,-95.2428,0201,0.3540
1984-07-17 17:30:00 UTC,2445899.229167,28.7317,-95.2428,0201,0.3540
1984-07-17 18:00:00 UTC,2445899.250000,28.7317,-95.2428,0201,0.3550
1984-07-17 18:30:00 UTC,2445899.270833,28.7317,-95.2428,0201,0.3550
1984-07-17 19:00:00 UTC,2445899.291667,28.7317,-95.2428,0201,0.3540
1984-07-17 19:30:00 UTC,2445899.312500,28.7317,-95.2428,0201,0.3530
1984-07-17 20:00:00 UTC,2445899.333333,28.7317,-95.2428,0201,0.3530
1984-07-17 20:30:00 UTC,2445899.354167,28.7317,-95.2428,0201,0.3530
1984-07-17 21:00:00 UTC,2445899.375000,28.7317,-95.2428,0201,0.3530
1984-07-17 21:30:00 UTC,2445899.395833,28.7317,-95.2428,0201,0.3520
1984-07-17 22:00:00 UTC,2445899.416667,28.7317,-95.2428,0201,0.3520
1984-07-17 22:30:00 UTC,2445899.437500,28.7317,-95.2428,0201,0.3520
1984-07-17 23:00:00 UTC,2445899.458333,28.7317,-95.2428,0201,0.3510
1984-07-17 23:30:00 UTC,2445899.479167,28.7317,-95.2428,0201,0.3510
1984-07-18 00:00:00 UTC,2445899.500000,28.7317,-95.2428,0201,0.3510
1984-07-18 00:30:00 UTC,2445899.520833,28.7317,-95.2428,0201,0.3500
1984-07-18 01:00:00 UTC,2445899.541667,28.7317,-95.2428,0201,0.3500
1984-07-18 01:30:00 UTC,2445899.562500,28.7317,-95.2428,0201,0.3500
1984-07-18 02:00:00 UTC,2445899.583333,28.7317,-95.2428,0201,0.3500
1984-07-18 02:30:00 UTC,2445899.604167,28.7317,-95.2428,0201,0.3500
1984-07-18 03:00:00 UTC,2445899.625000,28.7317,-95.2428,0201,0.3500
1984-07-18 03:30:00 UTC,2445899.645833,28.7317,-95.2428,0201,0.3500
1984-07-18 04:00:00 UTC,2445899.666667,28.7317,-95.2428,0201,0.3500
1984-07-18 04:30:00 UTC,2445899.687500,28.7317,-95.2428,0201,0.3500
1984-07-18 05:00:00 UTC,2445899.708333,28.7317,-95.2428,0201,0.3500
1984-07-18 05:30:00 UTC,2445899.729167,28.7317,-95.2428,0201,0.3500
1984-07-18 06:00:00 UTC,2445899.750000,28.7317,-95.2428,0201,0.3500
1984-07-18 06:30:00 UTC,2445899.770833,28.7317,-95.2428,0201,0.3500
1984-07-18 07:00:00 UTC,2445899.791667,28.7317,-95.2428,0201,0.3500
1984-07-18 07:30:00 UTC,2445899.812500,28.7317,-95.2428,0201,0.3500
1984-07-18 08:00:00 UTC,2445899.833333,28.7317,-95.2428,0201,0.3500
1984-07-18 08:30:00 UTC,2445899.854167,28.7317,-95.2428,0201,0.3500
1984-07-18 09:00:00 UTC,2445899.875000,28.7317,-95.2428,0201,0.3500
1984-07-18 09:30:00 UTC,2445899.895833,28.7317,-95.2428,0201,0.3500
1984-07-18 10:00:00 UTC,2445899.916667,28.7317,-95.2428,0201,0.3500
1984-07-18 10:30:00 UTC,2445899.937500,28.7317,-95.2428,0201,0.3500
1984-07-18 11:00:00 UTC,2445899.958333,28.7317,-95.2428,0201,0.3500
1984-07-18 11:30:00 UTC,2445899.979167,28.7317,-95.2428,0201,0.3500
1984-07-18 12:00:00 UTC,2445900.000000,28.7317,-95.2428,0201,0.3500
1984-07-18 12:30:00 UTC,2445900.020833,28.7317,-95.2428,0201,0.3500
1984-07-18 13:00:00 UTC,2445900.041667,28.7317,-95.2428,0201,0.3500
1984-07-18 13:30:00 UTC,2445900.062500,28.7317,-95.2428,0201,0.3510
1984-07-18 14:00:00 UTC,2445900.083333,28.7317,-95.2428,0201,0.3510
1984-07-18 14:30:00 UTC,2445900.104167,28.7317,-95.2428,0201,0.3510
1984-07-18 15:00:00 UTC,2445900.125000,28.7317,-95.2428,0201,0.3510
1984-07-18 15:30:00 UTC,2445900.145833,28.7317,-95.2428,0201,0.3500
1984-07-18 16:00:00 UTC,2445900.166667,28.7317,-95.2428,0201,0.3500
1984-07-18 16:30:00 UTC,2445900.187500,28.7317,-95.2428,0201,0.3510
1984-07-18 17:00:00 UTC,2445900.208333,28.7317,-95.2428,0201,0.3510
1984-07-18 17:30:00 UTC,2445900.229167,28.7317,-95.2428,0201,0.3510
1984-07-18 18:00:00 UTC,2445900.250000,28.7317,-95.2428,0201,0.3510
1984-07-18 18:30:00 UTC,2445900.270833,28.7317,-95.2428,0201,0.3510
1984-07-18 19:00:00 UTC,2445900.291667,28.7317,-95.2428,0201,0.3510
1984-07-18 19:30:00 UTC,2445900.312500,28.7317,-95.2428,0201,0.3510
1984-07-18 20:00:00 UTC,2445900.333333,28.7317,-95.2428,0201,0.3520
1984-07-18 20:30:00 UTC,2445900.354167,28.7317,-95.2428,0201,0.3520
1984-07-18 21:00:00 UTC,2445900.375000,28.7317,-95.2428,0201,0.3520
1984-07-18 21:30:00 UTC,2445900.395833,28.7317,-95.2428,0201,0.3520
1984-07-18 22:00:00 UTC,2445900.416667,28.7317,-95.2428,0201,0.3520
1984-07-18 22:30:00 UTC,2445900.437500,28.7317,-95.2428,0201,0.3520
1984-07-18 23:00:00 UTC,2445900.458333,28.7317,-95.2428,0201,0.3520
1984-07-18 23:30:00 UTC,2445900.479167,28.7317,-95.2428,0201,0.3520
1984-07-19 00:00:00 UTC,2445900.500000,28.7317,-95.2428,0201,0.3530